Location: Caixon
(43.4106°N, 0.0273°E)
Time: 14:37:11
(UTC+00:00)

Cosmos 405 - Pass Details

Date: 16 October 2021
Orbit: 445 x 455 km, 81.3° (Epoch: 28 November)

Event Time Altitude Azimuth Distance (km) Brightness Sun altitude
Rises 05:29:05 0° 332° (NNW) 2,455 6.3 -9.1°
Reaches altitude 10° 05:31:41 10° 312° (NW) 1,579 5.2 -8.6°
Maximum altitude 05:33:57 17° 270° (W) 1,222 4.4 -8.2°
Drops below altitude 10° 05:36:12 10° 229° (SW) 1,573 5.2 -7.8°
Sets 05:38:47 0° 208° (SSW) 2,441 6.4 -7.4°
